Starlink 5365

operational
NORAD ID: 55498 Int'l Des: 2023-015 Owner: SPXS Country: US Constellation: starlink
LEOCIRCULAR

About Starlink 5365

Description loading...

Live Position

Loading 3D Globe...

Upcoming Passes

Altitude History

Altitude vs Time

uPlot chart will show altitude changes over time

Two-Line Element Set

1 55498U 23015BB 25306.28252851 -.00000692 00000-0 -36111-4 0 9996
2 55498 43.0076 310.8418 0001741 265.4823 94.5820 15.02538536151442
Epoch: Nov 2, 2025 • Age: 19 hours

Current Status

Altitude 570.7 km
Velocity 7.58 km/s
Sub-Earth Point -41.82°S, 167.69°E
Launch Date Feb 2, 2023
Age 2.7 years
Type internet

Technical Details

Classification Payload
Mass 305.00 kg
Dry Mass 290.00 kg
Total Mass 305.00 kg
Length 0.20 m
Diameter 2.80 m
Span 9.00 m
Shape Box + pan
Manufacturer SPXS
Bus Type Starlink
Phase Status In Orbit
Owner/State SPXS/US

Large Constellations

Loading constellations...